Location: Helsinki
(60.1699°N, 24.9384°E)
Time: 10:43:01
(UTC+02:00)

Vanguard 2 Rocket - Pass Details

Date: 21 September 2023
Orbit: 552 x 3312 km, 32.9° (Epoch: 05 December)

Event Time Altitude Azimuth Distance (km) Brightness Sun altitude
Rises 13:11:54 0° 201° (SSW) 7,179 12.5 30.5°
Reaches altitude 10° 13:19:24 10° 185° (S) 6,264 12.8 30.5°
Maximum altitude 13:29:52 17° 153° (SSE) 5,494 12.0 30.5°
Drops below altitude 10° 13:39:23 10° 120° (ESE) 5,652 11.3 30.3°
Sets 13:45:27 0° 103° (ESE) 6,228 11.2 30.2°
